THORAD DELTA 1 DEB, 8566

Orbit data source: Space-Track

THORAD DELTA 1 DEB, 8566 is space debris in SSO originally from a launch on Fri, 15 Nov 1974 UTC launched from the Air Force Western Test Range (AFWTR). Debris objects in space refer to the collection of defunct objects orbiting the Earth. Examples of debris include non-operational satellites, rocket bodies, and fragments generated from explosions, collisions, or faulty payload assembly.

Loading next visibility...
Identifier
8566, 1974-089DD
Orbit
SSO
Country
Flag of USUS
Related business
Manufacturer
Unknown
Mission
Spacecraft
Bus & Motor
Unknown
Mass
Unknown
Launch date (UTC)
1974-11-15 (51 years ago)
Launch vehicle
Unknown
Launch site
Air Force Western Test Range (AFWTR)
Object type
Payload
Rocket body
Debris
Shape & HBR
Unknown shape, 0.1 m
Radar Cross Section
Small (<0.1 m²)

Expand to show TLE details & history
Last TLE update: 4 days ago

TLE from 4 days ago
0 THORAD DELTA 1 DEB
1 08566U 74089DD  26067.16946588  .00000037  00000-0  42387-3 0  9998
2 08566 101.3708 146.0488 0086804 268.2346 119.2845 12.66963835286066
Epoch: 2026-03-08T04:04Z
TLE epoch observation values (Epoch: 2026-03-08T04:04:01.852Z)
Latitude
27.81647°
Longitude
-86.90024°
Altitude
1,430.937 km
Speed
7.133 km/s
True Right ascension
09h 19m 57s
True Declination
27° 41' 13"
Sunlit
Object was in full shadow at epoch
Visualization orbit readout
Latitude
Unknown
Longitude
Unknown
Altitude
Unknown
Speed
Unknown
Apparent Right ascension
Unknown
Apparent Declination
Unknown
Sunlit
N/A
Visualization observer readout
Local Sidereal Time
18:57:48
Azimuth
Unknown
Elevation
Unknown
Doppler factor
Unknown
Orbital elements
Apogee altitude
1,459.281 km
Perigee altitude
1,324.388 km
Semi-major axis
7,769.972 km
Eccentricity
0.00868
Inclination
101.3708°
RAAN
146.0488°
Arg. of periapsis
268.2346°
True anomaly
120.14747°
Mean anomaly
119.2845°
Eccentric anomaly
119.71644°
Mean motion
3.16894 °/min
Orbital period
113.6 mins
BSTAR
0.00042387
Loading maneuver chart data...
Computing Atmospheric mass density...
Loading historical data...
Loading historical data...
Loading historical data...
Loading historical data...
Loading historical data...
Loading historical data...
Loading historical data...

Documentation

Showing up to 5 results
|